Home   Weather   Cayo Largo   Past weeks
Flag for Cuba

Past Weather in Cayo Largo, Cuba — Yesterday and Last 2 Weeks

Now
82 °F

Passing clouds.


Feels Like: 91 °F
Forecast: 87 / 76 °F
Wind: 5 mph from West

Location: Aeropuerto Jose Marti - Rancho-Boyeros - Habana
Current Time: Sep 18, 2020 at 8:56:14 pm
Latest Report: Sep 18, 2020 at 7:55 pm
Visibility: 6 mi
Pressure29.89 "Hg
Humidity: 84%
Dew Point: 77 °F
Location of Cayo LargoLocation

Past Weather in Cayo Largo — Graph

°F

Cayo Largo Temperature Yesterday

Maximum temperature yesterday: 90 °F (at 1:55 pm)
Minimum temperature yesterday: 73 °F (at 4:55 am)
Average temperature yesterday: 80 °F

High & Low Weather Summary for the Past Weeks

 TemperatureHumidityPressure
High91 °F (Sep 16, 2:55 pm)100% (Sep 3, 10:55 pm)30.07 "Hg (Sep 3, 10:55 pm)
Low72 °F (Sep 10, 6:55 am)56% (Sep 16, 2:55 pm)29.74 "Hg (Sep 12, 3:55 pm)
Average80 °F89%29.92 "Hg
* Reported Sep 3 7:34 pm — Sep 18 7:55 pm, Cayo Largo. Weather by CustomWeather, © 2020

Note: Actual official high and low records may vary slightly from our data, if they occured in-between our weather recording intervals... More about our weather records

Cayo Largo Weather History for the Previous 24 Hours

Scroll right to see more
 ConditionsComfort  
Time TempWeatherWind HumidityBarometerVisibility
7:55 pm
Fri, Sep 18
82 °FPassing clouds.5 mph84%29.89 "Hg6 mi
6:55 pm86 °FPartly sunny.3 mph70%29.89 "Hg6 mi
5:55 pm90 °FPartly sunny.5 mph59%29.86 "Hg6 mi
4:55 pm90 °FPartly sunny.7 mph67%29.86 "Hg6 mi
3:55 pm90 °FPartly sunny.6 mph63%29.86 "Hg6 mi
2:55 pm90 °FPartly sunny.6 mph63%29.89 "Hg6 mi
1:55 pm90 °FPartly sunny.6 mph67%29.92 "Hg6 mi
12:55 pm88 °FPartly sunny.5 mph66%29.95 "Hg6 mi
11:55 am86 °FPartly sunny.5 mph79%29.95 "Hg6 mi
10:55 am86 °FScattered clouds.5 mph79%29.95 "Hg6 mi
9:55 am82 °FPassing clouds.5 mph89%29.95 "Hg6 mi
8:55 am81 °FPassing clouds.2 mph94%29.92 "Hg6 mi
7:55 am73 °FPassing clouds.1 mph100%29.92 "Hg6 mi
6:55 am73 °FPassing clouds.No wind100%29.92 "Hg6 mi
5:55 am73 °FPassing clouds.2 mph100%29.92 "Hg6 mi
4:55 am73 °FPassing clouds.No wind100%29.92 "Hg6 mi
3:55 am75 °FPassing clouds.No wind100%29.89 "Hg6 mi
2:55 am75 °FPassing clouds.1 mph100%29.92 "Hg6 mi
1:55 am75 °FPassing clouds.No wind100%29.92 "Hg6 mi
12:55 am77 °FPassing clouds.No wind100%29.95 "Hg6 mi
11:55 pm
Thu, Sep 17
75 °FPassing clouds.2 mph100%29.95 "Hg6 mi
10:55 pm77 °FPassing clouds.No wind100%29.95 "Hg6 mi
9:55 pm77 °FPassing clouds.2 mph100%29.92 "Hg6 mi
8:55 pm77 °FPassing clouds.6 mph100%29.92 "Hg6 mi
Weather by CustomWeather, © 2020

See weather overview